{"data":{"norad_id":65486,"intl_designator":"2025-196A","name":"SHIYAN-29","alt_names":[],"object_type":"PAYLOAD","status":"ACTIVE","operator":null,"country":"PRC","launch_date":"2025-09-05","launch_site_code":"XICLF","launch_vehicle":null,"mission":null,"orbit_class":"UNKNOWN","rcs_meters":null,"size_class":null,"mass_kg":null,"dimensions":null,"purposes":["comms"],"wikipedia_slug":null,"has_3d_model":false,"image_url":null,"decayed_at":null,"tle_current":{"epoch":"2026-05-23T14:33:06.561216Z","epoch_age_seconds":195170,"freshness":"STALE","line1":"1 65486U 25196A   26143.60632594 -.00000282  00000+0  00000+0 0  9994","line2":"2 65486  28.7957  18.8473 0009888 173.7291   1.8552  1.00261227  2636","mean_motion":1.00261227,"eccentricity":0.0009888,"inclination_deg":28.7957,"raan_deg":18.8473,"arg_perigee_deg":173.7291,"mean_anomaly_deg":1.8552,"bstar":0,"rev_number":263,"period_min":1436.248132092,"perigee_km":35747.859597727,"apogee_km":35831.250425449,"semimajor_km":42167.692011588,"source":"CELESTRAK","updated_at":"2026-05-25T13:38:14.155214Z"}}}